Temp
73 72 71 71 70 69 67 67 66 66 66 66 66 66 64 65 63 62 62 62 61 60 61 61 60 61 62 62 63 64 63 63 56 63 64 65 64 64 66 65 66 67 68
72 71 69 69 68 67 66 65 66 64 65 65 66 66 66 66 64 59 59 60 59 58 59 60 60 62 57 57 56 56 58 59 57 55 60 63 63 64 64 64 65 68 65
73 71 68 66 66 64 64 64 64 64 64 65 65 65 65 64 59 58 58 57 57 57 58 58 57 57 53 54 53 54 55 57 56 55 55 60 62 64 64 63 63 62 64
70 68 65 64 63 63 63 63 63 63 61 62 63 64 64 58 57 56 55 55 56 57 57 57 56 55 52 51 52 52 53 51 52 52 53 55 58 60 62 58 57 59 61
69 67 64 64 63 63 62 62 62 62 62 63 62 63 62 57 55 52 52 53 54 55 56 58 57 58 58 55 53 51 50 49 49 49 49 50 52 52 51 53 53 56 59
67 66 66 65 65 63 63 62 61 61 60 61 60 60 56 57 48 49 50 51 54 55 54 55 56 57 57 55 54 53 52 49 48 48 48 47 49 50 51 51 50 50 49
66 65 64 64 63 63 62 61 59 58 59 59 59 59 57 57 47 47 49 52 54 55 54 54 54 59 56 56 55 54 53 51 51 50 48 49 49 50 50 49 49 47 47
65 65 64 64 63 62 60 58 56 58 57 57 58 58 57 56 48 46 47 54 55 56 56 55 54 55 55 49 50 50 51 53 53 53 51 50 53 52 51 49 48 47 48
64 63 63 63 61 59 57 56 56 57 56 56 57 56 56 57 47 46 47 53 54 53 54 54 54 54 47 44 47 47 47 48 51 49 48 46 44 43 46 46 46 47 45
63 63 63 62 60 57 56 55 55 55 56 57 57 58 56 56 44 44 45 52 48 48 51 53 52 49 45 44 45 46 44 46 47 47 47 47 47 47 46 46 46 44 44
64 64 61 60 60 57 55 55 55 54 55 56 57 59 58 55 47 44 43 47 45 46 48 51 53 46 43 42 42 49 45 45 48 46 44 44 45 46 47 48 48 47 46
63 61 60 59 60 59 56 56 56 55 54 56 56 56 57 57 47 45 43 43 44 47 49 52 52 44 43 43 47 43 43 47 47 44 43 42 43 44 45 46 48 49 50
59 58 58 56 58 59 57 56 56 56 55 55 53 51 51 55 54 46 44 43 46 48 51 48 45 45 45 49 46 45 46 48 46 44 43 43 43 44 46 46 49 50 51
57 57 57 56 54 57 59 58 57 54 53 53 49 46 47 49 49 45 45 48 48 51 49 54 49 47 46 47 48 48 47 47 47 45 45 46 46 46 46 48 48 47 46
57 57 55 57 56 56 57 57 56 49 48 49 45 46 43 44 44 40 39 42 46 46 44 53 50 49 47 46 46 46 46 46 46 47 47 46 45 46 47 47 48 46 46
55 56 53 55 55 56 56 51 43 43 42 40 40 41 45 42 39 39 39 39 39 40 50 48 48 47 46 46 46 45 46 45 45 46 47 48 47 45 46 46 47 46 46
52 51 52 53 54 55 55 56 49 45 43 42 40 38 38 37 38 39 39 40 42 46 48 50 50 49 49 49 49 49 47 47 47 46 46 47 48 48 46 47 49 49 51
52 46 50 52 54 55 55 52 52 49 47 48 40 40 38 38 38 39 41 47 49 48 47 46 51 51 51 50 50 50 50 48 47 46 47 50 50 49 49 49 50 50 50
53 50 51 53 54 53 54 51 49 46 46 45 45 43 39 39 40 40 43 47 46 47 47 48 53 51 50 50 49 49 49 47 45 46 47 50 50 53 52 51 51 42 44
47 43 46 53 55 53 50 49 46 44 42 41 41 39 38 41 42 46 47 46 46 49 51 52 52 51 50 49 48 47 47 46 44 44 47 50 50 53 53 53 52 50 51
52 51 40 53 51 50 47 46 42 41 41 40 40 39 34 42 41 41 50 49 49 52 51 51 52 50 49 47 46 45 45 44 43 43 47 49 50 53 55 55 54 52 51
51 51 51 49 49 48 46 45 43 40 42 41 39 40 35 46 48 48 51 53 53 53 53 50 49 49 47 45 44 43 42 40 40 42 45 47 53 55 56 55 54 53 51
50 50 48 47 47 43 45 45 43 41 41 43 46 45 43 49 52 53 53 53 54 53 53 51 48 47 46 44 43 43 40 37 37 42 43 46 53 53 55 55 54 54 52
48 48 47 45 45 45 43 42 41 38 42 42 43 49 52 52 51 52 53 53 53 53 53 51 47 46 44 42 41 41 39 35 38 40 42 52 51 52 53 54 53 55 54
45 46 45 44 43 42 41 42 41 41 42 43 48 48 51 52 52 51 52 53 53 52 51 51 47 44 43 41 38 38 34 33 36 35 41 53 50 52 52 53 53 53 53
44 44 44 44 44 44 44 45 48 49 50 49 49 50 51 51 51 51 51 51 51 51 50 49 48 44 41 39 37 34 32 32 34 35 45 51 50 50 50 52 51 52 51
MSLP
1011.66 1012.30 1012.88 1013.35 1013.76 1013.96 1014.11 1014.28 1014.36 1014.36 1014.33 1014.23 1014.15 1014.10 1014.12 1013.99 1013.93 1013.80 1013.59 1013.32 1013.31 1013.23 1012.74 1012.45 1012.23 1011.82 1011.59 1011.42 1010.91 1010.27 1009.90 1009.49 1008.71 1007.23 1006.87 1006.34 1005.93 1005.59 1005.34 1005.02 1004.66 1004.60 1003.90
1012.73 1013.31 1013.86 1014.24 1014.56 1014.73 1014.88 1014.95 1014.99 1015.14 1015.12 1014.97 1014.84 1014.63 1014.46 1014.44 1014.40 1014.63 1014.61 1014.63 1014.25 1013.81 1013.40 1012.91 1012.71 1012.49 1012.28 1012.29 1012.01 1011.35 1010.82 1010.33 1009.65 1008.28 1007.57 1006.78 1006.13 1005.35 1004.85 1004.66 1004.33 1003.79 1004.10
1013.38 1014.09 1014.65 1014.97 1015.21 1015.47 1015.56 1015.63 1015.56 1015.50 1015.56 1015.47 1015.34 1015.15 1014.99 1014.93 1015.26 1015.46 1015.60 1015.43 1015.03 1014.23 1013.74 1013.34 1013.16 1012.89 1012.97 1012.79 1012.57 1011.90 1011.32 1010.71 1010.24 1009.41 1007.94 1007.35 1006.53 1005.52 1004.73 1004.04 1003.71 1003.50 1003.47
1014.33 1014.82 1015.36 1015.70 1015.91 1015.99 1016.15 1016.18 1016.13 1016.20 1015.96 1015.99 1015.90 1015.59 1015.46 1015.93 1016.23 1016.29 1016.27 1015.78 1015.22 1014.52 1013.99 1013.75 1013.53 1013.40 1013.34 1012.89 1012.54 1012.09 1011.60 1011.25 1010.65 1009.93 1008.83 1007.84 1007.07 1006.08 1005.51 1005.42 1004.66 1004.17 1003.54
1014.82 1015.36 1015.80 1016.03 1016.40 1016.33 1016.66 1016.76 1016.69 1016.52 1016.27 1016.14 1016.05 1015.87 1015.80 1016.40 1016.84 1016.90 1016.55 1016.08 1015.37 1014.46 1014.31 1014.03 1013.58 1013.24 1012.74 1012.67 1012.50 1012.12 1011.85 1011.42 1010.89 1010.26 1009.43 1008.67 1007.85 1007.13 1006.92 1006.61 1006.14 1005.53 1004.62
1015.38 1015.75 1015.96 1015.94 1016.35 1016.48 1016.67 1016.99 1016.88 1016.74 1016.63 1016.44 1016.34 1016.51 1016.77 1016.94 1017.13 1016.88 1016.54 1015.93 1015.43 1015.06 1014.58 1014.07 1013.69 1013.10 1012.65 1012.33 1012.02 1011.79 1011.58 1011.22 1010.64 1010.23 1009.55 1008.90 1008.27 1007.89 1007.54 1007.09 1006.79 1006.28 1005.26
1015.92 1016.10 1016.28 1016.29 1016.60 1016.70 1016.86 1017.23 1017.25 1017.09 1016.86 1016.81 1016.81 1016.87 1016.91 1016.88 1016.96 1016.75 1016.61 1016.30 1015.58 1015.09 1014.68 1014.09 1013.61 1013.04 1012.57 1012.09 1011.67 1011.05 1010.48 1010.12 1009.85 1009.51 1008.87 1008.35 1007.91 1007.69 1007.51 1007.14 1006.89 1006.81 1006.50
1016.07 1016.45 1016.58 1016.66 1016.90 1017.12 1017.35 1017.67 1017.73 1017.49 1017.32 1017.13 1016.99 1016.98 1016.97 1017.03 1017.05 1016.97 1016.84 1016.08 1015.26 1014.73 1014.24 1013.84 1013.43 1012.87 1012.61 1012.53 1011.97 1011.16 1010.53 1009.80 1009.14 1008.56 1008.02 1007.62 1007.28 1007.08 1007.23 1007.17 1007.04 1006.83 1006.59
1016.51 1016.92 1017.15 1017.21 1017.42 1017.70 1018.02 1018.12 1018.07 1017.82 1017.72 1017.70 1017.45 1017.29 1017.15 1017.11 1017.36 1017.47 1016.91 1016.07 1015.35 1014.96 1014.56 1014.03 1013.55 1013.01 1012.95 1012.61 1011.99 1011.04 1010.20 1009.27 1008.50 1007.83 1007.33 1007.03 1006.87 1006.71 1006.80 1007.29 1006.88 1006.57 1006.10
1016.92 1017.26 1017.56 1017.86 1018.03 1018.30 1018.52 1018.58 1018.50 1018.28 1018.32 1018.05 1017.55 1017.20 1017.15 1017.33 1017.77 1017.56 1017.27 1016.49 1016.15 1015.61 1014.78 1014.06 1013.55 1013.40 1013.00 1012.38 1011.86 1010.95 1010.04 1008.83 1007.75 1006.90 1006.56 1006.47 1006.41 1006.30 1006.23 1006.53 1006.74 1006.53 1006.28
1017.43 1017.62 1018.07 1018.34 1018.21 1018.59 1018.92 1018.79 1018.67 1018.67 1018.28 1017.75 1017.39 1017.00 1017.18 1017.44 1017.94 1017.91 1017.68 1017.29 1016.89 1016.08 1015.23 1014.38 1013.93 1013.51 1013.08 1012.20 1011.57 1010.79 1010.24 1008.90 1007.45 1006.89 1006.86 1006.64 1006.40 1006.19 1005.99 1006.05 1006.17 1006.18 1006.03
1017.72 1018.19 1018.45 1018.72 1018.65 1018.76 1018.80 1018.82 1018.74 1018.71 1018.19 1017.66 1017.61 1017.54 1017.49 1017.65 1017.98 1018.20 1017.92 1017.63 1017.01 1016.30 1015.43 1014.77 1014.22 1013.73 1013.04 1012.18 1011.58 1010.88 1009.86 1008.88 1008.27 1007.68 1007.27 1006.96 1006.62 1006.37 1006.23 1006.04 1005.95 1005.88 1005.52
1018.47 1018.73 1018.68 1018.98 1019.01 1018.79 1018.56 1018.63 1018.69 1018.56 1018.50 1018.47 1018.59 1018.48 1018.49 1018.38 1018.41 1018.68 1018.22 1017.60 1016.83 1016.25 1015.66 1015.02 1014.42 1013.90 1013.11 1012.28 1011.72 1010.93 1009.99 1009.09 1008.60 1008.13 1007.69 1007.29 1007.03 1006.71 1006.42 1006.14 1005.75 1005.24 1004.96
1018.83 1018.85 1018.89 1019.12 1019.34 1019.08 1018.85 1018.80 1018.86 1019.35 1019.42 1019.49 1019.64 1019.69 1019.55 1019.31 1019.19 1019.29 1018.67 1017.82 1016.98 1016.21 1015.71 1014.87 1014.57 1014.07 1013.30 1012.98 1012.14 1011.36 1010.62 1009.83 1008.94 1008.24 1007.82 1007.45 1007.03 1006.62 1006.32 1006.00 1005.81 1005.45 1005.13
1019.09 1019.09 1019.35 1019.30 1019.47 1019.35 1019.29 1019.18 1019.40 1020.39 1020.40 1020.69 1020.85 1020.65 1020.52 1020.18 1020.22 1019.93 1019.44 1018.63 1017.68 1016.80 1016.13 1015.41 1014.83 1014.20 1013.69 1013.18 1012.63 1012.00 1011.19 1010.60 1009.69 1008.77 1007.79 1007.33 1006.98 1006.75 1006.32 1006.03 1005.72 1005.51 1005.25
1019.31 1019.46 1019.83 1019.74 1019.78 1019.56 1019.25 1019.87 1020.40 1020.72 1020.97 1021.37 1021.48 1021.44 1021.21 1021.06 1020.48 1019.78 1019.04 1018.51 1017.79 1016.93 1016.28 1015.87 1015.38 1014.99 1014.50 1013.98 1013.44 1012.59 1011.64 1010.94 1010.29 1009.36 1008.28 1007.59 1006.94 1006.55 1006.29 1005.96 1005.71 1005.54 1005.18
1020.19 1020.37 1020.22 1020.22 1020.08 1019.68 1019.45 1019.52 1020.41 1021.17 1021.18 1021.49 1021.67 1021.70 1021.49 1021.16 1020.44 1019.70 1018.84 1018.31 1017.91 1017.30 1016.87 1016.08 1015.56 1015.07 1014.57 1014.10 1013.60 1012.99 1012.14 1011.40 1010.70 1009.80 1008.80 1007.88 1007.02 1006.31 1006.10 1005.75 1005.46 1005.13 1004.63
1020.57 1021.00 1020.91 1020.58 1020.17 1019.94 1019.84 1020.06 1020.63 1021.13 1021.32 1021.49 1021.95 1021.78 1021.59 1021.08 1020.56 1019.94 1019.24 1018.71 1018.23 1017.82 1017.50 1016.91 1016.00 1015.69 1015.19 1014.63 1014.09 1013.39 1012.60 1011.78 1011.05 1010.37 1009.32 1008.15 1006.92 1006.29 1005.82 1005.58 1005.17 1004.93 1004.70
1020.68 1021.15 1021.03 1020.38 1020.46 1020.41 1020.09 1020.66 1021.30 1021.76 1021.90 1022.01 1022.13 1022.10 1021.95 1021.26 1020.50 1020.18 1019.95 1019.52 1019.13 1018.63 1017.99 1017.22 1016.56 1016.30 1015.85 1015.42 1014.95 1014.25 1013.55 1012.92 1012.09 1011.09 1009.91 1008.67 1007.60 1006.44 1005.93 1005.34 1005.18 1004.96 1005.01
1021.58 1021.74 1021.23 1020.51 1020.40 1020.43 1020.90 1021.39 1022.03 1022.34 1022.53 1022.65 1022.80 1022.82 1022.28 1021.48 1020.99 1020.57 1020.30 1020.22 1019.71 1018.81 1018.10 1017.55 1017.26 1017.09 1016.72 1016.32 1015.78 1015.08 1014.27 1013.55 1012.74 1011.82 1010.62 1009.40 1008.39 1007.26 1006.60 1006.05 1005.65 1005.35 1005.00
1021.22 1021.26 1021.34 1020.72 1021.23 1021.31 1021.68 1022.25 1022.66 1022.86 1022.89 1022.94 1023.02 1022.99 1022.30 1021.86 1021.54 1020.94 1020.05 1019.88 1019.39 1018.90 1018.70 1018.52 1018.14 1018.01 1017.67 1017.25 1016.78 1016.06 1015.35 1014.73 1014.01 1013.04 1011.55 1010.20 1008.97 1007.76 1006.97 1006.47 1006.22 1005.95 1005.69
1021.43 1021.34 1021.34 1021.56 1021.80 1021.88 1022.31 1022.83 1022.97 1023.00 1022.93 1023.05 1022.94 1022.77 1022.31 1021.63 1021.15 1020.58 1020.02 1019.66 1019.57 1019.39 1019.30 1019.35 1019.25 1018.97 1018.71 1018.35 1017.88 1017.14 1016.52 1015.94 1015.13 1013.98 1012.49 1011.16 1009.43 1008.53 1007.69 1007.13 1006.70 1006.45 1006.38
1021.61 1021.64 1021.84 1022.03 1022.25 1022.49 1022.76 1023.10 1023.20 1023.10 1023.05 1022.98 1022.48 1022.12 1021.94 1021.23 1020.86 1020.52 1020.27 1020.19 1019.98 1019.97 1019.82 1019.93 1020.15 1019.84 1019.69 1019.41 1018.93 1018.21 1017.73 1017.21 1016.31 1014.89 1013.49 1012.02 1010.43 1009.44 1008.61 1007.94 1007.49 1006.93 1006.62
1022.21 1022.22 1022.30 1022.50 1022.75 1022.77 1023.08 1023.45 1023.54 1023.52 1023.14 1023.04 1022.62 1021.83 1021.52 1021.43 1021.43 1021.14 1020.80 1020.62 1020.46 1020.51 1020.47 1020.60 1021.00 1020.96 1020.65 1020.34 1019.89 1019.12 1018.55 1017.99 1016.77 1015.43 1013.96 1012.16 1011.41 1010.34 1009.59 1008.83 1008.44 1007.81 1007.31
1022.73 1022.72 1022.72 1022.92 1023.21 1023.31 1023.32 1023.26 1023.22 1023.31 1023.20 1022.93 1022.45 1022.20 1022.01 1022.04 1021.91 1021.83 1021.52 1021.13 1021.10 1021.11 1021.29 1021.15 1021.52 1021.81 1021.42 1021.19 1020.82 1020.04 1019.16 1017.98 1016.71 1015.78 1014.47 1012.69 1012.30 1011.28 1010.64 1009.80 1009.28 1008.75 1008.48
1023.05 1023.06 1023.10 1023.18 1023.25 1023.29 1022.94 1022.82 1022.75 1022.66 1022.72 1022.78 1022.79 1022.86 1022.82 1022.78 1022.73 1022.56 1022.31 1022.09 1021.82 1021.95 1021.98 1022.12 1021.99 1022.30 1022.27 1021.88 1021.57 1020.90 1019.86 1018.74 1017.54 1016.12 1014.69 1013.63 1012.87 1012.24 1011.60 1010.68 1010.22 1009.55 1009.40
Wind_Speed
13 12 11 10 11 9 9 10 9 9 10 10 10 9 10 9 9 8 8 9 12 12 11 10 11 10 8 9 9 9 9 10 11 11 7 7 8 8 7 5 5 6 3
12 10 10 9 8 8 8 8 8 8 7 7 7 7 6 8 7 12 12 12 12 12 11 10 11 9 11 11 9 12 10 11 11 17 12 11 12 9 8 6 5 4 4
11 10 9 9 8 8 7 7 6 6 7 6 6 6 7 8 12 11 11 11 11 10 10 10 11 11 8 9 10 9 9 9 10 12 13 10 11 10 11 7 6 7 6
11 9 9 7 7 5 7 6 7 7 7 8 7 8 7 11 10 10 10 10 10 10 11 10 10 9 11 11 9 9 9 10 10 10 12 12 11 11 8 10 11 11 8
9 8 6 6 6 6 5 5 4 6 7 7 7 7 7 10 8 8 9 10 10 11 10 9 9 13 16 10 6 10 9 9 9 10 10 11 10 10 10 9 8 9 10
7 8 6 6 7 6 6 6 7 7 8 8 9 10 7 6 5 7 9 10 10 10 11 12 12 15 11 14 11 12 11 9 11 9 9 10 13 12 11 8 7 8 7
7 7 7 6 7 7 8 8 8 7 6 6 6 6 3 4 3 7 10 9 8 8 9 10 9 9 13 11 13 15 14 15 18 13 13 12 12 11 10 10 8 5 6
8 8 8 7 7 8 8 9 8 6 6 6 7 7 6 5 4 6 11 10 9 9 9 9 11 12 10 11 13 14 15 15 15 11 12 12 11 9 7 3 6 6 4
9 8 8 8 8 8 8 8 7 7 7 8 7 7 6 7 12 11 11 11 11 12 12 12 12 11 12 13 13 13 14 14 14 18 17 15 11 11 10 5 7 7 7
8 8 8 8 7 7 8 7 5 6 6 5 5 4 6 7 8 13 13 8 10 10 11 11 10 14 19 22 12 11 12 15 15 14 11 9 8 7 10 7 6 6 6
6 8 8 7 4 7 5 4 4 4 5 5 5 3 7 6 7 15 14 10 8 8 9 9 9 15 19 19 14 11 15 18 17 9 7 6 6 6 5 3 4 6 6
9 8 7 6 6 5 4 4 4 5 7 6 9 7 7 7 12 14 12 11 11 8 8 9 11 17 16 16 13 17 19 13 10 8 6 6 6 5 3 4 7 7 8
7 6 6 7 6 4 3 4 3 4 7 7 7 7 8 8 8 16 14 14 13 9 8 13 12 13 14 12 19 15 15 8 7 8 8 6 5 5 5 4 5 6 3
5 4 4 4 4 5 5 3 4 7 6 7 7 7 7 7 8 10 10 10 12 10 12 7 9 8 11 11 14 13 10 11 8 4 5 5 4 3 2 2 4 3 3
3 3 5 4 5 3 1 3 5 7 7 6 6 6 7 8 9 12 11 9 9 11 11 8 9 11 12 12 12 12 11 11 11 11 5 4 3 4 3 2 3 3 2
4 5 4 4 4 3 4 6 11 10 9 7 5 6 6 8 14 17 16 12 13 13 7 9 11 10 10 11 10 11 10 14 11 10 10 8 5 3 3 3 2 2 4
3 5 5 5 4 4 3 3 5 4 7 5 4 10 10 10 16 17 18 14 4 10 8 7 8 9 9 9 9 10 10 10 12 11 10 10 9 5 3 4 3 3 4
4 3 2 3 3 4 2 5 6 6 5 4 5 11 16 16 14 13 17 8 8 9 8 9 10 11 11 12 12 12 12 12 12 12 12 12 12 6 3 4 3 4 5
3 2 3 5 4 2 4 6 6 5 5 6 6 8 11 13 12 3 12 9 9 9 8 9 10 11 11 11 12 12 12 12 12 12 12 12 13 8 7 4 5 4 3
3 2 5 5 3 5 6 6 6 5 5 5 6 7 6 6 7 7 8 8 6 6 8 10 10 11 11 12 12 12 12 12 13 12 13 13 13 11 6 7 6 5 5
1 1 2 1 5 4 5 5 5 4 4 4 4 5 6 3 5 5 5 5 4 9 9 11 11 11 11 11 12 12 12 12 12 12 13 13 13 12 9 8 6 6 4
1 2 3 4 3 5 5 4 4 3 3 3 0 2 6 2 2 3 5 8 8 8 8 10 10 10 11 12 12 12 12 13 12 13 14 13 12 13 11 10 8 5 6
1 3 4 4 4 4 5 4 3 3 3 4 4 3 4 2 6 8 8 8 7 8 8 9 11 10 11 11 11 11 11 12 12 12 13 13 12 13 12 9 10 8 4
3 3 5 5 5 5 5 4 3 2 1 2 5 5 6 7 7 8 8 7 8 9 9 9 10 15 12 12 11 12 11 12 11 12 16 11 12 13 12 12 13 13 11
3 4 5 6 5 3 3 3 2 3 3 4 2 4 6 7 7 7 8 8 8 9 11 9 9 14 16 19 20 22 21 23 19 18 11 14 15 15 14 10 12 11 12
3 5 6 5 5 3 2 2 3 3 5 4 5 7 7 7 8 8 8 9 8 9 11 10 13 18 19 15 19 20 22 23 21 24 13 13 12 12 12 13 18 10 12
Wind_Direction
76 67 62 60 51 46 47 37 24 21 19 11 4 7 1 351 15 358 352 354 355 349 348 345 335 333 329 330 323 318 321 326 315 315 301 272 277 286 278 258 279 275 264
82 79 70 68 64 51 46 38 21 22 11 356 352 351 343 2 16 27 7 349 346 341 335 337 343 351 342 358 346 339 329 330 331 317 323 320 317 292 266 265 253 251 267
93 79 60 55 50 39 34 33 16 14 15 358 0 351 3 7 39 19 3 350 341 333 337 346 347 346 356 344 332 325 325 318 322 312 312 312 312 307 293 273 233 238 250
72 69 58 49 62 36 43 23 32 17 17 4 356 2 9 60 36 17 359 348 336 350 353 348 340 341 334 319 321 331 330 325 316 312 313 317 318 314 343 358 352 346 294
90 85 93 85 72 62 36 47 28 20 17 358 11 4 20 66 33 19 1 344 333 341 329 328 331 328 306 303 317 320 320 313 311 308 305 309 314 327 326 335 330 333 341
60 62 47 55 58 55 53 37 27 28 19 3 21 30 44 52 31 16 355 339 327 328 335 340 337 326 338 318 295 280 266 279 285 286 289 289 295 298 303 312 324 326 317
78 64 45 55 51 42 41 30 19 25 13 356 30 21 44 38 337 358 342 319 328 323 323 307 309 315 311 309 305 291 270 258 248 263 272 271 279 285 296 306 315 331 315
61 53 53 45 45 38 36 39 14 8 12 348 23 18 3 40 268 3 330 316 305 321 319 339 320 315 335 1 330 318 310 303 297 287 280 282 284 277 275 297 299 276 270
63 56 46 40 42 37 37 33 20 349 20 353 5 4 21 345 48 20 350 334 329 339 339 325 322 329 349 332 327 314 305 300 299 289 277 268 274 281 263 298 287 289 298
57 58 47 36 48 43 42 31 344 360 20 318 336 323 305 58 57 30 9 351 350 338 330 323 337 352 339 329 331 322 321 319 312 303 301 294 277 286 261 235 262 271 277
57 63 51 36 32 66 32 20 354 7 317 299 290 350 41 49 70 32 17 5 352 329 328 333 332 338 334 325 329 347 334 321 330 325 321 316 306 296 288 237 249 245 260
57 44 52 33 16 52 42 17 37 356 318 3 28 22 8 26 52 24 2 350 331 332 327 324 329 333 326 327 346 337 339 348 359 2 346 337 330 323 316 321 295 297 245
56 40 39 53 338 16 29 28 21 350 13 17 23 10 357 357 10 9 346 338 342 343 337 318 339 349 344 354 345 343 345 347 1 358 351 346 339 324 315 300 296 293 306
66 48 29 66 330 34 338 36 27 33 13 16 19 3 349 348 3 350 343 338 343 342 346 2 355 356 13 356 358 354 346 344 336 331 327 319 310 325 308 302 303 345 296
67 34 39 19 22 345 332 7 60 54 53 20 24 4 354 349 349 324 324 329 325 316 319 7 3 7 5 359 355 350 347 349 347 341 319 325 320 323 323 332 306 306 289
321 51 59 44 344 348 291 110 65 99 98 90 89 45 356 356 331 327 327 322 314 326 16 9 7 5 3 353 349 341 342 347 350 347 343 347 304 309 317 307 283 299 302
47 29 7 29 344 323 359 12 143 127 122 92 145 59 13 344 336 335 339 342 359 9 16 356 5 360 355 350 354 349 342 343 342 346 339 340 342 296 290 303 304 282 301
81 89 17 294 313 337 21 49 52 31 16 42 89 51 6 346 339 344 354 19 15 26 11 344 8 4 1 356 358 349 352 349 347 344 342 342 340 334 327 323 330 326 335
26 37 296 281 76 298 33 63 56 37 26 28 10 11 355 338 335 55 22 23 15 14 356 339 12 7 5 359 359 350 355 351 344 341 342 343 343 356 358 336 333 345 336
131 291 271 316 27 37 57 55 54 43 45 33 24 1 343 3 10 25 30 28 5 344 0 10 11 13 6 2 358 351 355 353 349 343 341 341 341 349 355 2 13 4 26
180 140 339 325 54 52 73 67 69 47 55 43 30 352 326 32 1 335 10 17 338 23 16 22 9 17 7 3 360 352 357 352 348 338 337 338 335 352 9 2 19 4 360
196 131 70 74 68 61 77 78 80 47 335 107 218 292 292 6 6 335 5 22 39 28 27 34 15 20 12 6 360 353 357 349 343 335 335 334 338 353 351 10 3 16 10
145 128 96 88 93 106 82 67 59 66 28 349 332 266 242 6 21 26 27 33 38 32 35 43 26 17 15 9 2 356 359 346 333 330 327 324 353 350 355 9 357 356 1
113 125 109 89 52 84 82 84 84 60 40 302 298 4 34 52 31 28 24 40 30 48 31 44 40 22 17 14 3 356 354 344 330 337 331 338 354 356 359 2 1 9 358
137 128 112 107 105 103 152 162 181 235 249 273 359 28 43 37 45 30 26 22 44 36 37 38 47 26 18 15 10 0 351 348 345 343 328 3 4 3 3 5 5 9 14
105 116 119 119 104 91 9 19 162 91 48 64 57 47 42 39 34 31 31 27 29 38 43 20 41 35 19 13 7 357 352 350 348 341 341 3 10 1 10 11 8 17 17